[[{"header":{"parameterUnit":"m.s-1","parameterCategory":1,"la1":30.2991,"la2":30.254,"lo1":-89.0895,"lo2":-89.0444,"dy":0.0017,"dx":0.0017,"nx":28,"ny":28,"refTime":"2025-01-09T09:00:00:Z","depth":0,"parameterNumber":2,"parameterNumberName":"U-component_of_WINDS"},"data":[0,0,0,0,0,0,0,0,0,0,0,0,0,0,0,0,0,0,0,0,0,0,0,0,0,0,0,0,0,0,0,0,0,0,0,0,0,0,0,0,0,0,0,0,0,0,0,0,0,0,0,0,0,0,0,0,0,0,-4.3499,-4.3502,0,-4.3755,-4.3758,-4.3761,-4.3875,-4.3874,-4.3874,-4.3874,-4.4136,-4.4143,-4.4151,0,0,0,0,0,0,0,0,0,0,0,0,0,-4.3108,-4.3115,-4.3499,-4.3502,-4.3505,-4.3755,-4.3758,-4.3762,-4.3875,-4.3874,-4.3874,-4.3873,-4.4134,-4.4142,-4.4151,0,0,0,0,0,0,0,0,0,0,0,0,0,-4.3312,-4.3117,-4.3498,-4.3592,-4.3603,-4.3754,-4.3759,-4.3763,-4.3875,-4.3874,-4.3874,-4.3873,-4.4131,-4.4142,-4.4152,-4.4231,0,0,-4.4186,-4.4191,0,0,0,0,0,0,0,0,-4.3301,-4.3327,-4.3575,-4.3585,-4.3598,-4.3783,-4.3717,-4.392,-4.3875,-4.3771,-4.3874,-4.3873,-4.4019,-4.4039,-4.4088,-4.4243,-4.4254,-4.4187,-4.4194,-4.4198,-4.4201,0,0,0,0,0,0,0,-4.3286,-4.3316,-4.36,-4.3578,-4.3592,-4.3621,-4.3649,-4.3756,-4.3895,-4.378,-4.3789,-4.3818,-4.4025,-4.4077,-4.4095,-4.4258,-4.4187,-4.4196,-4.4203,-4.4207,-4.4491,-4.4492,0,0,0,0,0,0,-4.3257,-4.3304,-4.3592,-4.3608,-4.3445,-4.3628,-4.366,-4.3724,-4.3894,-4.392,-4.3818,-4.3822,-4.4059,-4.4082,-4.4105,-4.4209,-4.4198,-4.4209,-4.4215,-4.449,-4.4491,-4.4492,0,0,0,0,0,0,-4.3248,-4.3281,-4.3582,-4.3458,-4.3499,-4.3636,-4.3706,-4.3729,-4.3782,-4.3923,-4.3948,-4.3846,-4.406,-4.409,-4.4199,-4.4219,-4.4213,-4.4223,-4.4489,-4.449,-4.4492,-4.4415,0,0,0,0,0,0,-4.3236,-4.3278,-4.3308,-4.3458,-4.3505,-4.3671,-4.3707,-4.3734,-4.38,-4.3808,-4.3956,-4.3979,-4.4061,-4.4182,-4.421,-4.4234,-4.4232,-4.4488,-4.4489,-4.4491,-4.4417,-4.4414,-4.4412,0,0,0,0,0,-4.3222,-4.3277,-4.3309,-4.3344,-4.3546,-4.3672,-4.3699,-4.3792,-4.3801,-4.3834,-4.3925,-4.3975,-4.4212,-4.4192,-4.4224,-4.4252,-4.4487,-4.4489,-4.4491,-4.4418,-4.4415,-4.4412,0,0,0,0,0,0,-4.3126,-4.3298,-4.3336,-4.3441,-4.3541,-4.3691,-4.3734,-4.3785,-4.3885,-4.3888,-4.3999,-4.4032,-4.4131,-4.4203,-4.4177,-4.4338,-4.4354,-4.4363,-4.4287,-4.4285,-4.4283,-4.4264,-4.4241,0,0,0,0,0,-4.3116,-4.3204,-4.335,-4.3428,-4.3476,-4.3596,-4.3654,-4.3718,-4.3826,-4.3869,-4.3967,-4.407,-4.4169,-4.4231,-4.4329,-4.4428,-4.4462,-4.4463,-4.446,-4.4458,-4.4464,-4.4522,-4.4525,-4.4499,-4.4499,-4.4499,0,0,-4.3099,-4.3204,-4.3252,-4.3411,-4.3496,-4.3585,-4.3631,-4.3722,-4.3789,-4.3883,-4.3992,-4.4068,-4.4191,-4.4295,-4.4346,-4.4358,-4.4479,-4.446,-4.4457,-4.4465,-4.4525,-4.4527,-4.4529,-4.45,-4.45,-4.45,0,0,-4.3111,-4.3199,-4.3275,-4.3359,-4.3487,-4.3566,-4.3584,-4.3727,-4.3781,-4.3892,-4.3965,-4.4046,-4.4212,-4.4297,-4.4362,-4.4407,-4.4457,-4.4436,-4.4423,-4.4478,-4.448,-4.4483,-4.45,-4.4504,-4.4441,-4.4441,-4.4441,0,-4.3073,-4.3209,-4.3307,-4.3395,-4.3463,-4.3551,-4.3629,-4.3706,-4.3859,-4.3904,-4.3916,-4.4127,-4.4216,-4.4341,-4.4352,-4.4402,-4.4426,-4.4419,-4.4472,-4.4475,-4.4479,-4.4497,-4.4502,-4.4438,-4.4438,-4.4438,-4.4439,0,-4.3156,-4.3249,-4.3295,-4.344,-4.3514,-4.3596,-4.3707,-4.3769,-4.3826,-4.3904,-4.4017,-4.4127,-4.4249,-4.4283,-4.4339,-4.4418,-4.4421,-4.445,-4.4469,-4.4477,-4.4495,-4.4502,-4.4433,-4.4434,-4.4435,-4.4436,0,0,-4.3116,-4.3315,-4.333,-4.3397,-4.3545,-4.3619,-4.3705,-4.3825,-4.3877,-4.3979,-4.4055,-4.4194,-4.4223,-4.4296,-4.4363,-4.4411,-4.4441,-4.4436,-4.444,-4.4433,-4.4535,-4.4512,-4.4518,-4.4475,-4.4477,-4.4478,-4.4525,0,-4.3149,-4.3308,-4.3398,-4.3519,-4.3607,-4.3692,-4.3768,-4.3866,-4.3942,-4.4028,-4.4112,-4.4209,-4.4238,-4.4283,-4.4335,-4.4426,-4.4463,-4.4424,-4.4547,-4.455,-4.4514,-4.4527,-4.4504,-4.4542,-4.4532,-4.4534,-4.4534,0,-4.321,-4.3311,-4.344,-4.3579,-4.3619,-4.3685,-4.3802,-4.3882,-4.3997,-4.4048,-4.413,-4.4197,-4.4292,-4.4302,-4.4435,-4.4406,-4.4462,-4.4514,-4.4518,-4.4534,-4.4543,-4.4544,-4.4557,-4.4562,-4.4546,-4.4546,-4.4545,0,-4.3168,-4.3337,-4.3436,-4.3491,-4.3655,-4.3699,-4.377,-4.3883,-4.395,-4.4052,-4.4096,-4.4208,-4.4269,-4.4355,-4.445,-4.4449,-4.4573,-4.4592,-4.462,-4.4617,-4.4642,-4.464,-4.4665,-4.4677,-4.4677,-4.4677,-4.4676,0,-4.3197,-4.3273,-4.342,-4.3481,-4.3569,-4.3672,-4.3757,-4.3834,-4.3934,-4.4013,-4.4093,-4.4165,-4.4286,-4.4373,-4.4448,-4.4547,-4.4574,-4.4619,-4.4638,-4.4612,-4.4606,-4.465,-4.465,-4.4678,-4.4678,-4.4678,-4.4677,0,-4.3165,-4.3267,-4.3381,-4.3526,-4.3565,-4.3623,-4.3748,-4.3811,-4.3891,-4.3989,-4.4018,-4.4143,-4.425,-4.4353,-4.4496,-4.4546,-4.4645,-4.467,-4.4606,-4.4617,-4.4639,-4.4635,-4.4694,-4.4707,-4.4708,-4.4708,-4.4708,0,-4.3177,-4.3238,-4.339,-4.3448,-4.3516,-4.3608,-4.3676,-4.3781,-4.3848,-4.3983,-4.403,-4.4142,-4.4238,-4.4404,-4.4508,-4.4618,-4.4646,-4.4659,-4.4664,-4.4636,-4.4648,-4.4643,-4.465,-4.4657,-4.4656,-4.4656,-4.4655,0,-4.3188,-4.3235,-4.333,-4.3442,-4.3521,-4.3614,-4.3711,-4.3753,-4.3877,-4.3949,-4.4058,-4.4132,-4.4278,-4.4389,-4.4511,-4.4584,-4.464,-4.4653,-4.4666,-4.464,-4.4601,-4.4623,-4.4599,-4.4651,-4.4652,-4.4652,-4.4652,-4.4652,-4.318,-4.3237,-4.3353,-4.3456,-4.354,-4.3628,-4.3694,-4.3782,-4.3875,-4.4002,-4.4058,-4.4169,-4.4282,-4.4452,-4.4524,-4.4613,-4.4627,-4.4644,-4.4649,-4.4652,-4.4646,-4.4586,-4.4635,-4.4635,-4.4636,-4.4636,-4.4636,0,-4.3195,-4.3274,-4.3367,-4.3499,-4.358,-4.3626,-4.3735,-4.38,-4.3896,-4.3997,-4.4089,-4.4215,-4.4323,-4.4436,-4.455,-4.4599,-4.4628,-4.4626,-4.4624,-4.464,-4.4627,-4.4605,-4.4601,-4.4601,-4.4601,-4.4601,-4.4601,-4.4601,-4.3213,-4.3313,-4.3374,-4.3517,-4.3596,-4.3704,-4.3763,-4.3845,-4.3926,-4.4063,-4.4153,-4.4225,-4.4332,-4.4454,-4.4555,-4.4586,-4.4625,-4.4615,-4.4652,-4.4639,-4.4641,-4.4643,-4.4623,-4.4622,-4.4622,-4.4659,-4.4659,-4.4659]},{"header":{"parameterUnit":"m.s-1","parameterCategory":1,"la1":30.2991,"la2":30.254,"lo1":-89.0895,"lo2":-89.0444,"dy":0.0017,"dx":0.0017,"nx":28,"ny":28,"refTime":"2025-01-09T09:00:00:Z","depth":0,"parameterNumber":3,"parameterNumberName":"V-component_of_WINDS"},"data":[0,0,0,0,0,0,0,0,0,0,0,0,0,0,0,0,0,0,0,0,0,0,0,0,0,0,0,0,0,0,0,0,0,0,0,0,0,0,0,0,0,0,0,0,0,0,0,0,0,0,0,0,0,0,0,0,0,0,10.6255,10.6256,0,10.6367,10.6368,10.6369,10.6306,10.6303,10.63,10.6297,10.6405,10.641,10.6416,0,0,0,0,0,0,0,0,0,0,0,0,0,10.5981,10.5986,10.6254,10.6256,10.6257,10.6367,10.6368,10.637,10.6307,10.6303,10.6299,10.6296,10.6403,10.641,10.6417,0,0,0,0,0,0,0,0,0,0,0,0,0,10.6097,10.5988,10.6254,10.6239,10.6239,10.6366,10.6368,10.637,10.6307,10.6303,10.6298,10.6294,10.6401,10.6409,10.6417,10.6564,0,0,10.6444,10.6448,0,0,0,0,0,0,0,0,10.609,10.6107,10.624,10.6241,10.6241,10.6318,10.6311,10.6435,10.6309,10.6281,10.6297,10.6291,10.6379,10.6389,10.642,10.6569,10.6573,10.6445,10.645,10.6454,10.6456,0,0,0,0,0,0,0,10.6082,10.6102,10.6299,10.6242,10.6242,10.6225,10.6237,10.6334,10.6354,10.6283,10.6279,10.6293,10.6378,10.6412,10.6422,10.6575,10.6444,10.6452,10.6457,10.6461,10.6852,10.6857,0,0,0,0,0,0,10.6076,10.6095,10.6295,10.6302,10.6153,10.6234,10.6247,10.6298,10.6353,10.6358,10.6297,10.629,10.64,10.6412,10.6426,10.6603,10.6453,10.6462,10.6467,10.6847,10.6853,10.6859,0,0,0,0,0,0,10.607,10.6094,10.6291,10.6198,10.6221,10.6244,10.6301,10.6302,10.6336,10.6364,10.6367,10.6329,10.6396,10.6414,10.6531,10.6606,10.6465,10.6473,10.684,10.6849,10.6856,10.6957,0,0,0,0,0,0,10.6063,10.6093,10.615,10.62,10.6227,10.6396,10.6306,10.6308,10.6352,10.6344,10.6394,10.6398,10.6394,10.6519,10.654,10.6615,10.648,10.6834,10.6844,10.6853,10.6947,10.6967,10.6984,0,0,0,0,0,10.6053,10.6171,10.6153,10.6177,10.6299,10.64,10.6415,10.6411,10.6358,10.6415,10.6434,10.6396,10.6594,10.6531,10.6554,10.6633,10.6829,10.6841,10.6852,10.6938,10.6963,10.6984,0,0,0,0,0,0,10.6126,10.6177,10.6157,10.6296,10.6345,10.6389,10.6461,10.6436,10.6499,10.6488,10.6477,10.6489,10.6612,10.6634,10.6563,10.6779,10.6703,10.672,10.6761,10.6784,10.6803,10.6795,10.6487,0,0,0,0,0,10.6159,10.6239,10.6279,10.6397,10.6423,10.6438,10.6482,10.6475,10.6523,10.6543,10.657,10.6617,10.669,10.6738,10.6806,10.695,10.696,10.7016,10.7034,10.705,10.7064,10.7144,10.717,10.6897,10.6897,10.6897,0,0,10.6226,10.6264,10.6315,10.6413,10.6449,10.6532,10.6455,10.6545,10.6606,10.6555,10.667,10.6691,10.6743,10.6875,10.6934,10.6897,10.7142,10.7064,10.7076,10.7083,10.7159,10.7185,10.7207,10.6905,10.6903,10.6902,0,0,10.6391,10.6428,10.6532,10.6572,10.663,10.664,10.6665,10.6715,10.6728,10.6843,10.6808,10.6879,10.7004,10.7044,10.708,10.7264,10.7233,10.7286,10.7384,10.7462,10.7484,10.7503,10.757,10.7594,10.7301,10.7301,10.7301,0,10.6467,10.6592,10.6587,10.6682,10.6726,10.6688,10.6793,10.683,10.6907,10.6938,10.6896,10.7055,10.7087,10.7228,10.7274,10.7304,10.7332,10.7281,10.7481,10.75,10.7518,10.7582,10.7607,10.7307,10.7307,10.7306,10.7305,0,10.6683,10.677,10.6847,10.6926,10.6979,10.7077,10.7087,10.7141,10.7129,10.7144,10.7262,10.7299,10.7376,10.7409,10.7397,10.755,10.7525,10.7483,10.7406,10.755,10.761,10.7635,10.7316,10.7314,10.7312,10.7311,0,0,10.6896,10.6975,10.7003,10.704,10.7102,10.7169,10.7266,10.7344,10.7391,10.7445,10.7527,10.7636,10.7598,10.7639,10.7631,10.77,10.7846,10.7648,10.7649,10.7685,10.8018,10.8052,10.808,10.7825,10.783,10.7833,10.8015,0,10.7067,10.724,10.7241,10.74,10.7481,10.7447,10.7532,10.7579,10.7595,10.7665,10.7681,10.776,10.7703,10.7728,10.7794,10.7814,10.7912,10.78,10.79,10.7904,10.789,10.8111,10.8146,10.8315,10.8038,10.8042,10.8045,0,10.7289,10.7356,10.7524,10.7578,10.7612,10.7689,10.7762,10.7829,10.7882,10.7889,10.7938,10.792,10.8019,10.794,10.8075,10.7999,10.804,10.8056,10.8063,10.8072,10.7984,10.8128,10.8368,10.8395,10.8081,10.8078,10.8076,0,10.7431,10.7561,10.768,10.7712,10.7777,10.7832,10.7861,10.791,10.7958,10.8021,10.8052,10.8124,10.8164,10.8221,10.8223,10.8165,10.8361,10.8281,10.8369,10.837,10.8412,10.841,10.8664,10.8437,10.8436,10.8436,10.8435,0,10.7622,10.7727,10.7745,10.7818,10.7934,10.7933,10.8048,10.8071,10.8116,10.8192,10.8166,10.8237,10.8236,10.8309,10.8311,10.8424,10.8442,10.845,10.845,10.8454,10.8453,10.848,10.8469,10.8443,10.8441,10.844,10.8439,0,10.78,10.7816,10.7943,10.7996,10.8012,10.8096,10.814,10.8209,10.8224,10.8321,10.8343,10.8366,10.8451,10.8459,10.8556,10.8558,10.8695,10.8681,10.8679,10.8677,10.8765,10.8757,10.9047,10.9086,10.8832,10.8834,10.8836,0,10.7922,10.8002,10.8065,10.8116,10.815,10.8231,10.8281,10.8283,10.8336,10.8404,10.8465,10.8548,10.8615,10.8751,10.8775,10.885,10.8839,10.8935,10.8849,10.8852,10.8842,10.8838,10.8847,10.8952,10.8955,10.8957,10.8959,0,10.8137,10.8142,10.8217,10.8295,10.8357,10.8418,10.8474,10.8517,10.8526,10.8586,10.8675,10.8727,10.8828,10.8911,10.8985,10.9013,10.8988,10.8986,10.901,10.9016,10.9012,10.9017,10.8726,10.8979,10.8977,10.8975,10.8974,10.8973,10.8292,10.8363,10.842,10.8504,10.8548,10.8603,10.8672,10.8697,10.8771,10.8856,10.8852,10.895,10.9002,10.91,10.9134,10.9209,10.9177,10.9212,10.9221,10.923,10.9241,10.8999,10.9222,10.9222,10.9221,10.9221,10.922,0,10.8508,10.8544,10.8622,10.8705,10.8771,10.8744,10.8807,10.8864,10.8951,10.9003,10.9071,10.9173,10.9254,10.9285,10.9364,10.9419,10.941,10.944,10.9436,10.9444,10.9264,10.9236,10.9446,10.9446,10.9446,10.9446,10.9446,10.9446,10.8628,10.8749,10.8761,10.8902,10.8936,10.9034,10.9073,10.9123,10.9165,10.9282,10.935,10.9371,10.9415,10.9498,10.9571,10.9578,10.9609,10.9644,10.9647,10.9479,10.9456,10.9434,10.9408,10.9651,10.9651,10.982,10.9822,10.9823]}]]